Welcome to Sulphur Springs Municipal Airport

Strategically located between Dallas and Texarkana, Sulphur Springs Municipal Airport (KSLR) offers exceptional business and aviation services along with superior investment opportunities, abundant space for growth, and lakefront access. We’re a friendly and bustling connector to the Texas, Oklahoma, Arkansas and Louisiana region. Sulphur Springs Municipal Airport is a rapidly emerging center for business, commerce and mobility. We invite you to stop on in!

METAR: KSLR 302355Z AUTO 06005KT 10SM CLR 30/13 A3009 RMK AO2 T02990131 10317 20289